Flag for U.S.A. Weather past 2 weeks in Lincoln, Nebraska, U.S.A.

Now
32 °F

Overcast.


Feels Like: 32 °F
Forecast: 27 / 36 °F
Wind: No wind

Location: Lincoln Municipal Airport

Current Time: Dec 18, 2014 at 7:57:33 PM

Latest Report: Dec 18, 2014 at 6:54 PM


Visibility: 7 mi

Pressure: 30.26 "Hg

Humidity: 82%

Dew point: 27 °F

Location of LincolnLocation

Historic Weather in Lincoln — Graph

°F

Lincoln temperature yesterday

Maximum temperature yesterday: 27 °F (at 9:54 PM)
Minimum temperature yesterday: 21 °F (at 6:54 AM)
Average temperature yesterday: 24 °F

Past Weeks' High & Low Weather Summary

 TemperatureHumidityPressure
High58 °F (Dec 12, 1:54 PM)97% (Dec 5, 9:54 AM)30.63 "Hg (Dec 5, 9:54 AM)
Low17 °F (Dec 9, 5:54 AM)38% (Dec 3, 5:54 PM)29.63 "Hg (Dec 15, 3:54 AM)
Average36 °F80%30.22 "Hg
* Reported Dec 3 5:54 PM — Dec 18 5:54 PM, Lincoln, Weather by CustomWeather, © 2014

Note: Actual official high and low records may vary slightly from our data, if they occured in-between our weather recording intervals... More about our weather records

Advertising

Lincoln weather history for previous 24 hours

 ConditionsComfort  
Time TempWeatherWind HumidityBarometerVisibility
5:54 PM
Dec 18
32 °FOvercast.No wind82%30.25 "Hg8 mi
4:54 PM32 °FOvercast.No wind79%30.25 "Hg8 mi
3:54 PM32 °FOvercast.3 mph82%30.24 "Hg7 mi
2:54 PM32 °FOvercast.3 mph79%30.24 "Hg7 mi
2:01 PM31 °FMostly cloudy.No wind82%30.20 "Hg7 mi
1:54 PM31 °FMostly cloudy.5 mph82%30.24 "Hg7 mi
12:54 PM31 °FMostly cloudy.5 mph82%30.25 "Hg7 mi
11:54 AM30 °FIce fog.3 mph85%30.28 "Hg5 mi
10:54 AM29 °FOvercast.5 mph85%30.29 "Hg7 mi
10:01 AM28 °FIce fog.6 mph89%30.26 "Hg5 mi
8:54 AM28 °FLight snow. Ice fog.No wind85%30.29 "Hg2 mi
8:04 AM27 °FIce fog.No wind89%30.24 "Hg6 mi
7:54 AM27 °FIce fog.No wind89%30.28 "Hg6 mi
7:01 AM26 °FLight snow. Ice fog.3 mph92%30.23 "Hg3 mi
6:04 AM26 °FLight snow. Ice fog.3 mph92%30.22 "Hg2 mi
5:54 AM26 °FLight snow. Ice fog.3 mph92%30.26 "Hg2 mi
4:54 AM26 °FLight snow. Ice fog.5 mph88%30.27 "Hg2 mi
4:00 AM26 °FLight snow. Ice fog.6 mph84%30.23 "Hg2 mi
2:54 AM27 °FOvercast.5 mph75%30.28 "Hg10 mi
1:54 AM27 °FOvercast.5 mph72%30.27 "Hg10 mi
12:54 AM27 °FMostly cloudy.3 mph72%30.29 "Hg10 mi
11:54 PM
Dec 17
27 °FMostly cloudy.6 mph72%30.31 "Hg10 mi
10:54 PM27 °FMostly cloudy.6 mph69%30.31 "Hg10 mi
9:54 PM27 °FOvercast.5 mph69%30.31 "Hg10 mi
8:54 PM26 °FOvercast.8 mph69%30.32 "Hg10 mi
7:54 PM26 °FOvercast.8 mph69%30.31 "Hg10 mi
Weather by CustomWeather, © 2014

See weather overviewHow to use our weather pages